OPS 4682 DEB, 38400

Orbit data source: Space-Track

OPS 4682 DEB, 38400 is space debris in LEO originally from a launch on Sat, 03 Apr 1965 UTC launched from the Air Force Western Test Range (AFWTR). Debris objects in space refer to the collection of defunct objects orbiting the Earth. Examples of debris include non-operational satellites, rocket bodies, and fragments generated from explosions, collisions, or faulty payload assembly.

Loading next visibility...
Identifier
38400, 1965-027DD
Orbit
LEO
Country
Flag of USUS
Related business
Manufacturer
Unknown
Mission
Spacecraft
Bus & Motor
Unknown
Mass
Unknown
Launch date (UTC)
1965-04-03 (61 years ago)
Launch vehicle
Unknown
Launch site
Air Force Western Test Range (AFWTR)
Object type
Payload
Rocket body
Debris
Shape & HBR
Unknown shape, 0.1 m
Radar Cross Section
Small (<0.1 m²)

Expand to show TLE details & history
Last TLE update: 21 hours ago

TLE from 21 hours ago
0 OPS 4682 DEB
1 38400U 65027DD  25340.37255870  .00000336  00000-0  11150-2 0  9998
2 38400  90.2468  12.7458 0033803 149.1102 211.2017 12.98376486589244
Epoch: 2025-12-06T08:56Z
TLE epoch observation values (Epoch: 2025-12-06T08:56:29.071Z)
Latitude
-0.00004°
Longitude
163.22343°
Altitude
1,293.472 km
Speed
7.199 km/s
True Right ascension
00h 50m 58s
True Declination
0° 00' 00"
Sunlit
Object was in daylight at epoch
Visualization orbit readout
Latitude
Unknown
Longitude
Unknown
Altitude
Unknown
Speed
Unknown
Apparent Right ascension
Unknown
Apparent Declination
Unknown
Sunlit
N/A
Visualization observer readout
Local Sidereal Time
03:31:28
Azimuth
Unknown
Elevation
Unknown
Doppler factor
Unknown
Orbital elements
Apogee altitude
1,291.422 km
Perigee altitude
1,239.746 km
Semi-major axis
7,643.721 km
Eccentricity
0.00338
Inclination
90.2468°
RAAN
12.7458°
Arg. of periapsis
149.1102°
True anomaly
211.00175°
Mean anomaly
211.2017°
Eccentric anomaly
211.10165°
Mean motion
3.24778 °/min
Orbital period
110.85 mins
BSTAR
0.001115
Loading maneuver chart data...
Computing Atmospheric mass density...
Loading historical data...
Loading historical data...
Loading historical data...
Loading historical data...
Loading historical data...
Loading historical data...
Loading historical data...

Documentation

Showing up to 5 results
|